GW0254 Weather Reports


Display with metric or nautical units.
time (UTC)temp
F
wind
direction
speed
MPH
gust
MPH
rain 1hr
in
rain 24hr
in
rain mn
in
humidity
%
barometer
mb
20260905024557 48 0 0.0 2.0 0.00 0.04 0.04 74 1018.6
20260905023052 49 0 0.0 2.0 0.00 0.04 0.04 72 1018.5
20260905021546 50 0 0.0 3.0 0.00 0.04 0.04 70 1018.3
20260905020052 51 0 0.0 2.0 0.00 0.04 0.04 68 1018.3
20260905014559 51 0 0.0 2.0 0.00 0.04 0.04 67 1018.4
20260905013049 53 0 0.0 3.0 0.00 0.04 0.04 65 1018.3
20260905011549 53 0 0.0 3.0 0.00 0.04 0.04 66 1018.3
20260905010045 53 257 0.0 3.0 0.00 0.04 0.04 66 1018.2
20260905004554 53 0 0.0 6.0 0.00 0.04 0.04 66 1018.2
20260905003051 54 0 0.0 3.0 0.00 0.04 0.04 66 1018.0
20260905001546 53 0 0.0 5.0 0.00 0.04 0.04 68 1018.1
20260905000048 53 0 0.0 5.0 0.00 0.04 0.04 67 1018.1
20260904234558 54 284 1.0 8.0 0.00 0.04 0.04 65 1018.1
20260904233051 54 0 1.0 7.0 0.00 0.04 0.04 66 1017.8
20260904231555 54 0 2.0 14.0 0.00 0.04 0.04 67 1017.9
20260904230046 54 0 1.0 7.0 0.00 0.04 0.04 65 1017.7
20260904224603 55 0 0.0 7.0 0.00 0.04 0.04 64 1017.8
20260904223052 55 198 1.0 6.0 0.00 0.04 0.04 65 1017.9
20260904221549 55 0 1.0 7.0 0.00 0.04 0.04 66 1017.9
20260904220059 54 0 0.0 4.0 0.00 0.04 0.04 66 1017.7
20260904214549 55 0 0.0 3.0 0.00 0.04 0.04 65 1017.7
20260904213051 54 0 0.0 6.0 0.00 0.04 0.04 68 1017.8
20260904211546 54 0 0.0 3.0 0.00 0.04 0.04 66 1017.9
20260904210059 55 177 1.0 6.0 0.00 0.04 0.04 66 1017.8
20260904204547 53 0 0.0 3.0 0.00 0.04 0.04 71 1017.7
20260904203047 52 192 0.0 6.0 0.00 0.04 0.04 72 1017.7
20260904201558 51 0 1.0 9.0 0.00 0.04 0.04 73 1017.8
20260904200058 51 190 1.0 7.0 0.00 0.04 0.04 74 1017.7
20260904194604 50 242 1.0 8.0 0.00 0.04 0.04 74 1017.9
20260904193046 50 276 2.0 11.0 0.00 0.04 0.04 75 1018.0
20260904191547 50 175 0.0 11.0 0.00 0.04 0.04 76 1018.0
20260904190051 49 0 1.0 13.0 0.00 0.04 0.04 79 1018.0
20260904184546 49 0 0.0 7.0 0.00 0.04 0.04 82 1017.8
20260904183057 49 0 0.0 0.0 0.00 0.04 0.04 83 1017.7
20260904181556 49 0 0.0 3.0 0.00 0.04 0.04 85 1017.7
20260904180047 48 265 0.0 4.0 0.00 0.04 0.04 85 1017.6
20260904174556 48 150 0.0 3.0 0.00 0.04 0.04 84 1017.5
20260904173120 48 0 1.0 5.0 0.00 0.04 0.04 84 1017.3
20260904171607 49 0 0.0 2.0 0.00 0.04 0.04 84 1017.2
20260904170047 48 0 0.0 13.0 0.00 0.04 0.04 82 1017.1
20260904164553 48 0 1.0 6.0 0.00 0.04 0.04 83 1016.7
20260904163054 48 263 0.0 7.0 0.00 0.04 0.04 85 1016.5
20260904161550 48 0 0.0 9.0 0.00 0.04 0.04 85 1016.5
20260904160047 47 223 1.0 12.0 0.00 0.04 0.04 87 1016.6
20260904154545 47 253 0.0 5.0 0.00 0.04 0.04 90 1016.4
20260904153055 46 286 0.0 4.0 0.00 0.04 0.04 90 1016.3
20260904151548 46 0 0.0 4.0 0.01 0.04 0.04 91 1016.2
20260904150104 46 0 0.0 3.0 0.01 0.04 0.04 91 1016.1
20260904144545 46 0 0.0 8.0 0.02 0.04 0.04 90 1015.9
20260904143052 46 0 2.0 11.0 0.03 0.04 0.04 90 1015.8
20260904141548 46 0 0.0 7.0 0.03 0.03 0.03 90 1015.6
20260904140046 46 0 0.0 5.0 0.03 0.03 0.03 90 1015.6
20260904134553 46 243 1.0 5.0 0.02 0.02 0.02 90 1015.6
20260904133048 46 0 0.0 6.0 0.01 0.01 0.01 89 1015.5
20260904131545 47 0 0.0 8.0 0.00 0.00 0.00 87 1015.4
20260904130045 47 355 2.0 9.0 0.00 0.00 0.00 84 1015.2
20260904124550 47 223 2.0 9.0 0.00 0.00 0.00 83 1015.1
20260904123048 47 209 2.0 12.0 0.00 0.00 0.00 82 1015.1
20260904121544 47 202 4.0 16.0 0.00 0.00 0.00 81 1015.1
20260904120106 48 290 3.0 11.0 0.00 0.00 0.00 80 1015.2
20260904114550 48 136 2.0 11.0 0.00 0.00 0.00 80 1015.1
20260904113050 47 184 3.0 11.0 0.00 0.00 0.00 80 1015.0
20260904111546 47 247 2.0 9.0 0.00 0.00 0.00 82 1015.2
20260904110059 47 320 5.0 14.0 0.00 0.00 0.00 80 1015.0
20260904104551 48 245 5.0 15.0 0.00 0.00 0.00 78 1014.9
20260904103049 48 266 3.0 18.0 0.00 0.00 0.00 78 1015.0
20260904101546 48 219 4.0 26.0 0.00 0.00 0.00 78 1015.0
20260904100045 48 236 5.0 14.0 0.00 0.00 0.00 78 1015.2
20260904094554 48 250 5.0 24.0 0.00 0.00 0.00 78 1014.9
20260904093105 48 178 3.0 17.0 0.00 0.00 0.00 79 1015.1
20260904091551 48 202 3.0 13.0 0.00 0.00 0.00 79 1015.2
20260904090046 48 269 4.0 20.0 0.00 0.00 0.00 79 1015.2
20260904084547 48 244 3.0 19.0 0.00 0.00 0.00 78 1015.4
20260904083056 48 200 4.0 14.0 0.00 0.00 0.00 76 1015.5
20260904081551 48 245 5.0 16.0 0.00 0.00 0.00 76 1015.4
20260904080047 48 201 2.0 17.0 0.00 0.00 0.00 75 1015.6
20260904074557 48 210 4.0 15.0 0.00 0.00 0.00 74 1015.6
20260904073054 48 183 5.0 17.0 0.00 0.00 0.00 75 1015.6
20260904071553 48 123 3.0 15.0 0.00 0.00 0.00 73 1015.5
20260904070055 49 133 4.0 19.0 0.00 0.00 0.00 74 1015.8
20260904064547 49 223 5.0 20.0 0.00 0.00 0.00 76 1015.4
20260904063045 49 183 4.0 16.0 0.00 0.00 0.00 76 1015.3
20260904061550 49 150 3.0 14.0 0.00 0.00 0.00 75 1015.2
20260904060051 49 198 4.0 11.0 0.00 0.00 0.00 73 1015.2
20260904054546 49 161 2.0 13.0 0.00 0.00 0.00 74 1015.4
20260904053046 48 228 4.0 13.0 0.00 0.00 0.00 75 1015.5
20260904051558 48 265 5.0 16.0 0.00 0.00 0.00 75 1015.8
20260904050052 48 188 6.0 16.0 0.00 0.00 0.00 76 1015.8
20260904044546 48 328 3.0 16.0 0.00 0.00 0.00 76 1016.1
20260904043052 48 207 3.0 19.0 0.00 0.00 0.00 75 1016.3
20260904041556 49 147 4.0 18.0 0.00 0.00 0.00 73 1016.1
20260904034552 49 312 3.0 11.0 0.00 0.00 0.00 74 1016.0
20260904033053 49 261 4.0 17.0 0.00 0.00 0.00 73 1015.9
20260904031552 49 180 3.0 15.0 0.00 0.00 0.00 74 1015.9
20260904030056 49 284 3.0 9.0 0.00 0.00 0.00 73 1015.8